(108286) = 1993 SJ10 = 2001 HQ61 = 2002 RW226

Discovered at Haleakala on 2001-04-24 by NEAT.

Orbit

Orbit type: Main Belt

Note: WebGL enabled browser required.

epoch2024-03-31.0
epoch JD2460400.5
perihelion date2025-03-19.23231
perihelion JD2460753.73231
argument of perihelion (°)101.83910
ascending node (°)209.77595
inclination (°)4.31159
eccentricity0.1193442
perihelion distance (AU)2.4291302
Tisserand w.r.t. Jupiter3.3
ΔV w.r.t. Earth (km/sec)9.9
semimajor axis (AU)2.7583197
mean anomaly (°)284.00284
mean daily motion (°/day)0.21514780
aphelion distance (AU)3.088
period (years)4.58
P-vector [x]0.66274705
P-vector [y]-0.71299444
P-vector [z]-0.22892198
Q-vector [x]0.74791204
Q-vector [y]0.61499361
Q-vector [z]0.24982081
absolute magnitude15.58
phase slope0.15
uncertainty0
referenceMPEC 2024-C107
observations used939
oppositions19
arc length (days)10777
first opposition used1993
last opposition used2023
residual rms (arc-secs)0.69
perturbers coarse indicatorM-v
perturbers precise indicator003Ek
first observation date used1993-09-22.0
last observation date used2023-03-26.0
computer nameMPCLINUX
JD of orbit computation2456937.179802
perihelion JD uncertainty (days)9.3683E-05
argument of perihelion uncertainty (°)5.2488E-05
ascending node uncertainty (°)4.9134E-05
inclination uncertainty (°)4.8116E-06
eccentricity uncertainty 3.6212E-08
perihelion distance uncertainty (AU)1.0346E-07
Minimum Orbit Intersection Distances (in AU)
for orbit epoch: 2460200.5, reference: E2024-CA7
Mercury2.00175
Venus1.70794
Earth1.41832
Mars1.04428
Jupiter2.154
Saturn6.0332
Uranus15.4124
Neptune27.0463

Observations

957 total observations over interval: 1993 09 22.28229 – 2023 03 26.275870
These data are available for download (format description).

Date (UT) J2000 RA J2000 Dec Magn Location Ref
1993 09 22.28229 00 42 39.15 +07 32 42.3 18.5   809 – European Southern Observatory, La Silla MPC 23942
1993 09 22.30312 00 42 38.14 +07 32 34.2   809 – European Southern Observatory, La Silla MPC 23942
1993 09 22.32396 00 42 37.19 +07 32 25.7   809 – European Southern Observatory, La Silla MPC 23942
1993 09 24.26354 00 41 09.23 +07 20 02.1   809 – European Southern Observatory, La Silla MPC 23942
1993 09 24.28437 00 41 08.13 +07 19 51.4   809 – European Southern Observatory, La Silla MPC 23942
1993 09 24.30521 00 41 07.00 +07 19 43.6   809 – European Southern Observatory, La Silla MPC 23942
1998 11 15.30175 03 38 24.16 +16 34 42.8 19.1 V 691 – Steward Observatory, Kitt Peak-Spacewatch MPS 124043
1998 11 15.32374 03 38 22.92 +16 34 36.8 19.2 V 691 – Steward Observatory, Kitt Peak-Spacewatch MPS 124043
1998 11 15.34573 03 38 21.69 +16 34 31.0 19.1 V 691 – Steward Observatory, Kitt Peak-Spacewatch MPS 124043
2001 04 24.49988 14 42 55.21 -14 36 32.7 20.7   608 – Haleakala-AMOS MPS 30944
2001 04 24.51057 14 42 54.66 -14 36 29.4 20.4   608 – Haleakala-AMOS MPS 30944
2001 04 24.52092 14 42 54.12 -14 36 25.8 20.1   608 – Haleakala-AMOS MPS 30944
2001 04 28.37292 14 39 44.06 -14 15 12.6 19.2 V 691 – Steward Observatory, Kitt Peak-Spacewatch MPS 30944
2001 04 28.39449 14 39 42.95 -14 15 05.6 19.4 V 691 – Steward Observatory, Kitt Peak-Spacewatch MPS 30944
2001 04 28.41600 14 39 41.84 -14 14 58.1 19.4 V 691 – Steward Observatory, Kitt Peak-Spacewatch MPS 30944
2001 05 02.32153 14 36 25.43 -13 53 06.0 18.6   644 – Palomar Mountain/NEAT MPS 31743
2001 05 02.33256 14 36 24.85 -13 53 02.0 19.2   644 – Palomar Mountain/NEAT MPS 31743
2001 05 02.34354 14 36 24.25 -13 52 58.2 18.8   644 – Palomar Mountain/NEAT MPS 31743
2001 05 02.55383 14 36 13.51 -13 51 44.2 20.8   608 – Haleakala-AMOS MPS 31743
2001 05 02.56475 14 36 12.93 -13 51 41.1 20.8   608 – Haleakala-AMOS MPS 31743
2001 05 02.57570 14 36 12.36 -13 51 37.5 20.1   608 – Haleakala-AMOS MPS 31743
2002 08 12.30982 23 38 34.39 +03 08 20.5 19.4   704 – Lincoln Laboratory ETS, New Mexico MPS 81419
2002 08 12.32480 23 38 34.02 +03 08 19.0 19.6   704 – Lincoln Laboratory ETS, New Mexico MPS 81419
2002 08 12.33982 23 38 33.69 +03 08 16.1 20.0   704 – Lincoln Laboratory ETS, New Mexico MPS 81419
2002 08 12.35479 23 38 33.31 +03 08 15.1 20.6   704 – Lincoln Laboratory ETS, New Mexico MPS 81419
2002 08 12.36972 23 38 33.01 +03 08 14.0 20.3   704 – Lincoln Laboratory ETS, New Mexico MPS 81419
2002 09 06.26163 23 23 38.99 +01 17 14.5 19.1   704 – Lincoln Laboratory ETS, New Mexico MPS 81419
2002 09 06.27556 23 23 38.46 +01 17 09.3 20.2   704 – Lincoln Laboratory ETS, New Mexico MPS 81419
2002 09 06.30323 23 23 36.99 +01 16 59.0 19.5   704 – Lincoln Laboratory ETS, New Mexico MPS 81419
2002 09 06.31708 23 23 36.36 +01 16 54.0 19.5   704 – Lincoln Laboratory ETS, New Mexico MPS 81419
2002 09 14.32103 23 17 26.94 +00 24 40.9 18.1   644 – Palomar Mountain/NEAT MPS 63641
2002 09 14.34206 23 17 25.93 +00 24 32.3 18.1   644 – Palomar Mountain/NEAT MPS 63641
2002 09 14.36297 23 17 24.94 +00 24 24.0 18.1   644 – Palomar Mountain/NEAT MPS 63641
2002 09 17.12760 23 15 19.18 +00 05 43.0 18.1   644 – Palomar Mountain/NEAT MPS 63641
2002 09 17.19690 23 15 15.96 +00 05 15.1 18.0   644 – Palomar Mountain/NEAT MPS 63641
2002 09 17.26000 23 15 12.99 +00 04 49.3 17.9   644 – Palomar Mountain/NEAT MPS 63641
2002 09 18.19689 23 14 31.02 -00 01 32.1 18.0   644 – Palomar Mountain/NEAT MPS 65952
2002 09 18.26666 23 14 27.77 -00 02 00.5 18.1   644 – Palomar Mountain/NEAT MPS 65952
2002 09 18.32944 23 14 24.82 -00 02 26.1 18.1   644 – Palomar Mountain/NEAT MPS 65952
2002 10 04.18340 23 04 08.93 -01 44 57.9 19.0   704 – Lincoln Laboratory ETS, New Mexico MPS 65952
2002 10 04.19908 23 04 08.39 -01 45 04.1 19.9   704 – Lincoln Laboratory ETS, New Mexico MPS 65952
2002 10 04.21488 23 04 07.90 -01 45 09.4 19.4   704 – Lincoln Laboratory ETS, New Mexico MPS 65952
2002 10 04.23051 23 04 07.37 -01 45 14.0 19.8   704 – Lincoln Laboratory ETS, New Mexico MPS 65952
2002 10 04.24610 23 04 06.89 -01 45 20.7 19.6   704 – Lincoln Laboratory ETS, New Mexico MPS 65952
2003 12 22.26225 06 10 53.28 +17 46 08.7 19.3   704 – Lincoln Laboratory ETS, New Mexico MPS 94606
2003 12 22.27509 06 10 52.56 +17 46 08.4 20.1   704 – Lincoln Laboratory ETS, New Mexico MPS 94606
2003 12 22.28795 06 10 51.74 +17 46 09.6 20.2   704 – Lincoln Laboratory ETS, New Mexico MPS 94606
2003 12 22.30055 06 10 50.98 +17 46 07.5 20.1   704 – Lincoln Laboratory ETS, New Mexico MPS 94606
2003 12 22.31317 06 10 50.24 +17 46 07.1 20.0   704 – Lincoln Laboratory ETS, New Mexico MPS 94606
2005 03 02.21176 11 19 23.81 -00 19 13.1 20.3 V 691 – Steward Observatory, Kitt Peak-Spacewatch MPS 127128
2005 03 02.24233 11 19 22.33 -00 19 02.7 20.4 V 691 – Steward Observatory, Kitt Peak-Spacewatch MPS 127128
2005 03 02.26843 11 19 21.08 -00 18 54.0 20.4 V 691 – Steward Observatory, Kitt Peak-Spacewatch MPS 127128
2005 03 04.27422 11 17 46.23 -00 07 31.5 19.6 R 703 – Catalina Sky Survey MPS 127128
2005 03 04.28444 11 17 45.72 -00 07 28.6 18.9 R 703 – Catalina Sky Survey MPS 127128
2005 03 04.29464 11 17 45.21 -00 07 23.3 19.0 R 703 – Catalina Sky Survey MPS 127128
2005 03 04.30495 11 17 44.67 -00 07 21.8 19.9 R 703 – Catalina Sky Survey MPS 127128
2005 03 09.16698 11 13 51.22 +00 21 22.7 20.1 V 691 – Steward Observatory, Kitt Peak-Spacewatch MPS 127846
2005 03 09.22100 11 13 48.55 +00 21 41.9 19.8 V 691 – Steward Observatory, Kitt Peak-Spacewatch MPS 127846
2005 03 09.24703 11 13 47.24 +00 21 51.5 19.7 V 691 – Steward Observatory, Kitt Peak-Spacewatch MPS 127846
2005 03 13.16980 11 10 38.10 +00 45 49.0 19.9 V 691 – Steward Observatory, Kitt Peak-Spacewatch MPS 128973
2005 03 13.19646 11 10 36.77 +00 45 58.7 19.7 V 691 – Steward Observatory, Kitt Peak-Spacewatch MPS 128973
2005 03 13.22396 11 10 35.42 +00 46 09.0 19.7 V 691 – Steward Observatory, Kitt Peak-Spacewatch MPS 128973
2005 03 17.29543 11 07 22.16 +01 11 17.4 19.5 R G96 – Mt. Lemmon Survey MPS 128973
2005 03 17.30168 11 07 21.86 +01 11 19.7 19.3 R G96 – Mt. Lemmon Survey MPS 128973
2005 03 17.30792 11 07 21.56 +01 11 22.0 19.4 R G96 – Mt. Lemmon Survey MPS 128973
2005 03 17.31417 11 07 21.25 +01 11 24.2 19.4 R G96 – Mt. Lemmon Survey MPS 128973
2005 04 12.16465 10 51 30.47 +03 33 00.3 19.4 R G96 – Mt. Lemmon Survey MPS 131583
2005 04 12.17067 10 51 30.34 +03 33 01.9 19.5 R G96 – Mt. Lemmon Survey MPS 131583
2005 04 12.17668 10 51 30.20 +03 33 03.3 19.4 R G96 – Mt. Lemmon Survey MPS 131583
2005 04 12.18270 10 51 30.04 +03 33 04.9 19.3 R G96 – Mt. Lemmon Survey MPS 131583
2007 10 05.63752 02 49 16.98 +15 55 28.6 19.1 R D29 – Purple Mountain Observatory, XuYi Station MPS 219894
2007 10 05.65426 02 49 16.37 +15 55 24.4 19.5 R D29 – Purple Mountain Observatory, XuYi Station MPS 219894
2007 10 05.67022 02 49 15.79 +15 55 20.9 19.1 R D29 – Purple Mountain Observatory, XuYi Station MPS 219894
2007 10 05.68409 02 49 15.42 +15 55 17.8 19.8 R D29 – Purple Mountain Observatory, XuYi Station MPS 219894
2007 10 06.26301 02 48 56.31 +15 52 55.2 19.7   704 – Lincoln Laboratory ETS, New Mexico MPS 219894
2007 10 06.27421 02 48 55.86 +15 52 51.4 20.1   704 – Lincoln Laboratory ETS, New Mexico MPS 219894
2007 10 06.28501 02 48 55.53 +15 52 48.7 20.4   704 – Lincoln Laboratory ETS, New Mexico MPS 219894
2007 10 06.29582 02 48 55.18 +15 52 44.5 20.4   704 – Lincoln Laboratory ETS, New Mexico MPS 219894
2007 10 06.30661 02 48 54.78 +15 52 43.5 20.0   704 – Lincoln Laboratory ETS, New Mexico MPS 219894
2007 10 06.37599 02 48 52.34 +15 52 25.6   691 – Steward Observatory, Kitt Peak-Spacewatch MPS 219894
2007 10 06.39363 02 48 51.71 +15 52 21.2   691 – Steward Observatory, Kitt Peak-Spacewatch MPS 219894
2007 10 06.41123 02 48 51.02 +15 52 17.2   691 – Steward Observatory, Kitt Peak-Spacewatch MPS 219894
2007 10 07.39714 02 48 17.31 +15 48 05.3 19.4 V G96 – Mt. Lemmon Survey MPS 219894
2007 10 07.40267 02 48 17.10 +15 48 03.9 19.4 V G96 – Mt. Lemmon Survey MPS 219894
2007 10 07.40837 02 48 16.88 +15 48 02.5 19.3 V G96 – Mt. Lemmon Survey MPS 219894
2007 10 07.41390 02 48 16.70 +15 48 01.0 19.3 V G96 – Mt. Lemmon Survey MPS 219894
